FW1460 Weather Reports


Display with metric or nautical units.
time (UTC)temp
F
wind
direction
speed
MPH
gust
MPH
rain 1hr
in
rain 24hr
in
rain mn
in
humidity
%
barometer
mb
20260902210054 71 157 4.0 7.0 0.00 0.02 0.00 69 1019.8
20260902204548 71 158 5.0 6.0 0.00 0.09 0.00 69 1019.7
20260902203047 72 159 0.0 7.0 0.00 0.09 0.00 68 1019.6
20260902201603 72 151 3.0 10.0 0.00 0.09 0.00 68 1019.5
20260902200046 72 144 4.0 8.0 0.00 0.09 0.00 68 1019.5
20260902194543 73 164 2.0 8.0 0.00 0.11 0.00 66 1019.8
20260902193043 74 148 3.0 9.0 0.00 0.11 0.00 66 1019.9
20260902191545 74 148 4.0 8.0 0.00 0.11 0.00 66 1020.0
20260902190042 74 144 3.0 9.0 0.00 0.11 0.00 67 1020.0
20260902184541 74 179 4.0 10.0 0.00 0.17 0.00 68 1020.0
20260902183049 74 109 1.0 8.0 0.00 0.17 0.00 66 1019.8
20260902181540 75 142 2.0 7.0 0.00 0.17 0.00 65 1019.7
20260902180041 75 77 2.0 6.0 0.00 0.17 0.00 64 1019.8
20260902174538 75 63 1.0 8.0 0.00 0.33 0.00 63 1020.0
20260902173038 75 89 1.0 6.0 0.00 0.33 0.00 65 1020.0
20260902171538 75 104 2.0 6.0 0.00 0.33 0.00 65 1020.1
20260902170035 75 340 1.0 6.0 0.00 0.33 0.00 65 1020.3
20260902164540 74 39 2.0 7.0 0.00 0.33 0.00 65 1020.4
20260902163033 74 63 1.0 7.0 0.00 0.33 0.00 65 1020.5
20260902161531 73 159 2.0 9.0 0.00 0.33 0.00 67 1020.6
20260902160030 74 158 3.0 7.0 0.00 0.33 0.00 66 1020.8
20260902154532 73 84 2.0 8.0 0.00 0.34 0.00 66 1021.0
20260902153029 72 96 1.0 6.0 0.00 0.34 0.00 69 1021.1
20260902151524 73 84 2.0 7.0 0.00 0.34 0.00 69 1020.9
20260902150026 72 54 3.0 8.0 0.00 0.34 0.00 69 1021.1
20260902144520 71 74 1.0 6.0 0.00 0.43 0.00 74 1021.0
20260902143021 70 75 2.0 8.0 0.00 0.43 0.00 73 1021.0
20260902141524 70 73 1.0 7.0 0.00 0.43 0.00 75 1020.6
20260902140023 69 71 2.0 8.0 0.00 0.43 0.00 75 1020.6
20260902134510 68 61 1.0 7.0 0.00 0.44 0.00 82 1020.2
20260902133009 67 71 2.0 6.0 0.00 0.44 0.00 83 1020.1
20260902131506 66 69 1.0 5.0 0.00 0.44 0.00 84 1020.2
20260902130005 66 81 1.0 7.0 0.00 0.44 0.00 83 1020.5
20260902124514 66 71 2.0 6.0 0.00 0.44 0.00 84 1020.4
20260902123002 65 54 1.0 6.0 0.00 0.44 0.00 87 1020.5
20260902121604 65 34 1.0 6.0 0.00 0.44 0.00 89 1020.6
20260902120056 64 28 0.0 0.0 0.00 0.44 0.00 91 1020.8
20260902114553 63 28 0.0 3.0 0.00 0.44 0.00 92 1020.9
20260902113049 61 28 1.0 3.0 0.00 0.44 0.00 92 1020.6
20260902111547 61 28 0.0 1.0 0.00 0.44 0.00 93 1020.7
20260902110046 60 28 0.0 2.0 0.00 0.44 0.00 92 1020.4
20260902104547 60 28 0.0 2.0 0.00 0.44 0.00 92 1020.2
20260902103046 60 28 0.0 4.0 0.00 0.44 0.00 92 1020.1
20260902101545 60 28 0.0 2.0 0.00 0.44 0.00 92 1019.8
20260902100039 60 28 0.0 1.0 0.00 0.44 0.00 92 1019.7
20260902094538 60 28 0.0 1.0 0.00 0.44 0.00 92 1019.7
20260902093043 60 28 0.0 2.0 0.00 0.44 0.00 92 1019.5
20260902091544 59 28 0.0 2.0 0.00 0.44 0.00 92 1019.4
20260902090036 59 28 0.0 0.0 0.00 0.44 0.00 92 1019.4
20260902084548 59 28 0.0 1.0 0.00 0.44 0.00 92 1019.5
20260902083042 60 28 0.0 2.0 0.00 0.44 0.00 92 1019.3
20260902081534 60 28 0.0 2.0 0.00 0.44 0.00 92 1019.1
20260902080034 60 28 0.0 3.0 0.00 0.44 0.00 92 1019.2
20260902074533 60 28 0.0 3.0 0.00 0.44 0.00 92 1019.5
20260902073034 60 28 0.0 3.0 0.00 0.44 0.00 92 1019.4
20260902071535 60 28 0.0 3.0 0.00 0.44 0.00 92 1019.1
20260902070029 60 28 0.0 2.0 0.00 0.44 0.00 92 1019.1
20260902064528 60 28 0.0 2.0 0.00 0.44 0.00 92 1019.1
20260902063031 60 28 0.0 5.0 0.00 0.44 0.00 92 1018.9
20260902061541 60 63 1.0 4.0 0.00 0.44 0.00 92 1019.0
20260902060026 60 76 1.0 3.0 0.00 0.44 0.00 93 1019.1
20260902054528 60 76 0.0 3.0 0.00 0.44 0.00 92 1018.9
20260902053028 59 78 0.0 1.0 0.00 0.44 0.00 92 1019.0
20260902051523 59 78 0.0 3.0 0.00 0.44 0.00 92 1018.8
20260902050023 59 78 0.0 3.0 0.00 0.44 0.00 92 1018.9
20260902044520 59 78 0.0 1.0 0.00 0.44 0.00 92 1018.8
20260902043018 59 78 0.0 0.0 0.00 0.44 0.00 92 1018.7
20260902041515 60 78 0.0 0.0 0.00 0.44 0.00 92 1018.4
20260902040014 60 78 0.0 0.0 0.00 0.44 0.00 92 1018.2
20260902034512 60 78 0.0 2.0 0.00 0.44 0.44 92 1018.3
20260902033012 60 78 0.0 2.0 0.00 0.44 0.44 92 1018.2
20260902031511 61 78 0.0 2.0 0.00 0.44 0.44 92 1018.2
20260902030010 61 78 0.0 3.0 0.00 0.44 0.44 92 1018.3
20260902024518 61 78 0.0 2.0 0.00 0.44 0.44 92 1018.2
20260902023007 61 78 0.0 2.0 0.01 0.44 0.44 92 1017.9
20260902021505 61 78 0.0 2.0 0.01 0.44 0.44 92 1017.7
20260902020006 61 78 1.0 3.0 0.01 0.44 0.44 92 1017.9
20260902014504 60 79 0.0 0.0 0.01 0.44 0.44 91 1017.8
20260902013005 60 81 0.0 1.0 0.00 0.43 0.43 91 1017.6
20260902011503 60 81 0.0 4.0 0.00 0.43 0.43 91 1017.8
20260902010002 60 148 0.0 3.0 0.00 0.43 0.43 91 1017.8
20260902004502 61 148 0.0 3.0 0.00 0.43 0.43 91 1017.7
20260902003002 61 148 1.0 3.0 0.00 0.43 0.43 91 1017.6
20260902001600 61 148 0.0 1.0 0.00 0.43 0.43 92 1017.8
20260901234559 61 148 0.0 0.0 0.00 0.43 0.43 91 1017.4
20260901233058 61 148 0.0 2.0 0.00 0.43 0.43 91 1017.2
20260901231557 61 148 0.0 5.0 0.00 0.43 0.43 91 1017.3
20260901230056 61 157 1.0 5.0 0.00 0.43 0.43 91 1017.2
20260901224556 61 119 0.0 3.0 0.00 0.43 0.43 91 1017.2
20260901223056 61 126 0.0 4.0 0.00 0.43 0.43 91 1017.3
20260901221556 61 87 1.0 6.0 0.00 0.43 0.43 91 1017.2
20260901220054 61 157 0.0 2.0 0.01 0.43 0.43 91 1017.4
20260901214554 60 157 0.0 1.0 0.04 0.43 0.43 91 1017.6
20260901213112 60 157 0.0 1.0 0.07 0.43 0.43 91 1017.5
20260901211553 60 157 0.0 5.0 0.07 0.43 0.43 90 1017.3